EHI
0 0 0 0 0 0 0 0 0 0 0 0 0 0 0 0 0 0 0 0 0 0 0 0 0 0 0 0 1 1 1 0 0 0 0 0 0 0
0 0 0 0 0 0 0 0 0 0 0 0 0 0 0 0 0 0 0 0 0 0 0 0 0 0 0 0 0 0 0 0 0 0 0 0 0 0
0 0 0 0 0 0 0 0 0 0 0 0 0 0 0 0 0 0 0 0 0 0 0 0 0 0 0 0 0 0 0 0 0 0 0 0 0 0
0 0 0 0 0 0 0 0 0 0 0 0 0 0 0 0 0 0 0 0 0 0 0 0 0 0 0 0 0 0 0 0 0 0 0 0 0 0
0 0 0 0 0 0 0 0 0 0 0 0 0 0 0 0 0 0 0 0 0 0 0 0 0 0 0 0 0 0 0 0 0 0 0 0 0 0
0 0 0 0 0 0 0 0 0 0 0 0 0 0 0 0 0 0 0 0 0 0 0 0 0 0 0 0 0 0 0 0 0 0 0 0 0 0
0 0 0 0 0 0 0 0 0 0 0 0 0 0 0 0 0 0 0 0 0 0 0 0 0 0 0 0 0 0 0 0 0 0 0 0 0 0
0 0 0 0 0 0 0 0 0 0 0 0 0 0 0 0 0 0 0 0 0 0 0 0 0 0 0 0 0 0 0 0 0 0 0 0 0 0
0 0 0 0 0 0 0 0 0 0 0 0 0 0 0 0 0 0 0 0 0 0 0 0 0 0 0 0 0 0 0 0 0 0 0 0 0 0
0 0 0 0 0 0 0 0 0 0 0 0 0 0 0 0 0 0 0 0 0 0 0 0 0 0 0 0 0 0 0 0 0 0 0 0 0 0
0 0 0 0 0 0 0 0 0 0 0 0 0 0 0 0 0 0 0 0 0 0 0 0 0 0 0 0 0 0 0 0 0 0 0 0 0 0
0 0 0 0 0 0 0 0 0 0 0 0 0 0 0 0 0 0 0 0 0 0 0 0 0 0 0 0 0 0 0 0 0 0 0 0 0 0
0 0 0 0 0 0 0 0 0 0 0 0 0 0 0 0 0 0 0 0 0 0 0 0 0 0 0 0 0 0 0 0 0 0 0 0 0 0
0 0 0 0 0 0 0 0 0 0 0 0 0 0 0 0 0 0 0 0 0 0 0 0 0 0 0 0 0 0 0 0 0 0 0 0 0 0
0 0 0 0 0 0 0 0 0 0 0 0 0 0 0 0 0 0 0 0 0 0 0 0 0 0 0 0 0 0 0 0 0 0 0 0 0 0
0 0 0 0 0 0 0 0 0 0 0 0 0 0 0 0 0 0 0 0 0 0 0 0 0 0 0 0 0 0 0 0 0 0 0 0 0 0
0 0 0 0 0 0 0 0 0 0 0 0 0 0 0 0 0 0 0 0 0 0 0 0 0 0 0 0 0 0 0 0 0 0 0 0 0 0
0 0 0 0 0 0 0 0 0 0 0 0 0 0 0 0 0 0 0 0 0 0 0 0 0 0 0 0 0 0 0 0 0 0 0 0 0 0
0 0 0 0 0 0 0 0 0 0 0 0 0 0 0 0 0 0 0 0 0 0 0 0 0 0 0 0 0 0 0 0 0 0 0 0 0 0
0 0 0 0 0 0 0 0 0 0 0 0 0 0 0 0 0 0 0 0 0 0 0 0 0 0 0 0 0 0 0 0 0 0 0 0 0 0
0 0 0 0 0 0 0 0 0 0 0 0 0 0 0 0 0 0 0 0 0 0 0 0 0 0 0 0 0 0 0 0 0 0 0 0 0 0
0 0 0 0 0 0 0 0 0 0 0 0 0 0 0 0 0 0 0 0 0 0 0 0 0 0 0 0 0 0 0 0 0 0 0 0 0 0
0 0 0 0 0 0 0 0 0 0 0 0 0 0 0 0 0 0 0 0 0 0 0 0 0 0 0 0 0 0 0 0 0 0 0 0 0 0
Wind_Speed
4 4 3 3 3 3 3 3 3 3 4 4 3 3 3 3 5 4 4 7 9 9 10 10 11 12 12 12 11 10 10 11 11 11 12 13 14 14
3 3 3 3 3 3 3 3 4 4 4 4 4 4 3 4 5 4 5 9 10 10 10 10 10 11 11 11 11 10 10 10 10 11 11 12 13 14
3 3 4 4 2 3 3 3 3 3 4 4 3 3 3 4 4 4 4 4 5 9 9 9 9 10 10 11 11 10 10 10 11 11 11 11 12 13
4 3 4 3 3 3 2 3 3 3 3 4 3 2 3 4 4 4 4 4 4 7 9 9 9 9 9 10 10 10 10 10 11 11 11 11 12 13
4 3 4 3 3 3 3 3 3 3 2 3 4 2 3 3 2 3 4 3 4 5 7 9 9 9 10 10 9 9 9 10 10 11 11 11 11 11
3 3 4 4 4 4 3 3 3 3 2 2 3 3 3 3 1 2 3 3 3 3 4 4 6 8 9 9 9 9 10 10 10 11 11 11 11 11
3 3 3 3 4 4 3 3 3 2 2 2 3 2 3 2 2 2 3 3 3 2 2 2 3 3 4 7 10 11 11 11 10 11 11 12 12 11
4 4 4 3 5 6 7 6 4 4 3 3 3 4 5 4 3 2 2 2 3 2 1 3 2 3 4 4 8 11 11 11 11 11 11 11 11 11
3 4 4 4 5 4 6 6 6 6 6 4 4 6 5 4 3 3 3 3 4 3 2 3 3 4 5 6 11 12 12 12 12 12 11 11 10 11
3 3 3 5 5 4 4 4 5 5 5 4 5 7 6 5 5 5 4 4 4 3 3 3 3 4 4 4 9 12 13 13 13 13 12 11 11 10
3 3 3 4 6 5 3 4 5 5 5 5 6 7 8 8 6 2 2 2 3 3 2 3 3 2 2 3 5 9 11 12 13 13 12 12 11 9
4 4 4 5 6 5 3 3 4 5 5 5 5 5 5 6 7 5 4 3 3 3 3 2 2 1 2 2 2 3 5 9 11 11 12 11 10 6
3 4 4 7 7 6 4 3 5 5 4 3 4 4 4 4 4 4 5 5 4 5 4 3 2 2 2 2 2 2 3 3 4 5 9 11 12 9
3 3 4 8 8 7 4 4 5 4 2 2 3 4 4 4 4 4 5 6 7 7 5 4 3 3 2 2 3 2 2 2 3 3 4 7 9 10
2 5 7 7 6 5 6 6 4 2 2 2 3 4 4 4 4 4 4 4 4 5 5 5 5 3 3 3 3 2 2 2 3 3 3 4 5 5
4 5 6 6 6 6 5 5 3 2 2 2 3 4 4 3 3 3 3 3 2 4 4 4 4 4 3 4 3 3 3 3 2 3 3 3 4 5
3 3 4 4 5 4 4 4 4 4 4 4 3 4 4 4 4 3 2 2 2 3 4 3 1 2 3 3 2 3 3 2 2 3 3 3 3 5
4 3 4 4 4 4 4 4 4 4 4 4 4 4 4 5 4 4 3 2 3 3 3 2 2 1 1 2 3 3 2 3 2 3 3 3 3 3
4 3 3 3 4 4 4 3 4 4 3 3 4 4 5 4 4 4 4 3 3 3 3 2 1 0 1 3 3 3 3 2 2 2 3 4 4 4
3 2 3 3 3 4 4 4 4 4 4 4 5 5 5 4 4 5 4 4 4 3 3 2 1 1 2 2 2 3 3 3 2 3 2 2 1 2
3 3 3 3 3 3 3 3 4 4 5 4 4 5 5 4 4 5 5 6 5 3 3 3 4 4 2 0 1 2 2 2 3 2 2 2 2 1
3 3 3 3 3 3 4 4 4 4 5 5 5 5 5 5 5 6 6 5 4 4 4 4 4 2 0 0 2 3 3 3 2 1 1 3 4 4
3 3 3 3 4 4 4 5 5 5 5 5 6 6 6 5 5 4 5 4 4 4 4 4 3 1 1 1 2 2 2 2 1 1 2 3 2 4
Wind_Direction
248 242 237 247 232 222 209 196 203 258 278 270 265 262 257 254 256 247 246 251 246 245 244 242 240 237 236 231 226 225 224 223 226 228 227 226 227 227
247 248 248 250 249 239 227 218 202 212 250 256 252 257 265 272 267 253 245 252 249 245 240 238 235 232 230 225 222 221 221 219 220 224 225 228 229 229
259 249 255 255 251 253 241 231 221 203 239 268 260 266 266 272 282 271 260 250 251 247 241 238 235 231 226 222 220 220 220 220 221 223 227 230 231 228
271 262 262 259 254 256 249 245 242 224 216 257 274 268 258 263 268 270 269 261 249 246 237 236 236 235 230 227 221 220 221 221 222 223 225 227 228 227
264 256 258 255 261 263 252 251 253 253 218 226 258 255 255 265 279 280 279 275 261 248 236 235 235 233 229 224 221 220 222 225 225 223 224 224 224 224
271 259 260 247 246 256 257 254 255 260 247 241 256 264 259 265 256 272 292 289 277 270 252 238 233 233 231 226 223 222 222 225 226 224 223 223 224 223
288 277 271 265 264 261 261 254 250 247 254 252 258 269 270 269 260 252 270 287 285 260 255 252 231 232 232 229 226 225 226 225 224 222 223 223 223 223
294 291 280 278 286 282 274 260 235 231 242 243 247 253 260 252 255 251 259 283 284 263 218 262 227 240 239 226 225 224 224 224 223 223 223 224 223 222
279 286 296 302 301 292 289 287 270 257 234 221 238 248 249 243 238 252 248 242 247 246 209 256 237 239 240 235 224 224 225 222 219 221 223 223 222 220
277 275 285 299 303 299 292 294 285 277 260 240 232 244 245 240 227 234 242 256 263 255 199 234 241 240 246 235 229 224 223 221 221 221 222 222 221 219
299 296 296 301 308 312 300 293 297 296 292 290 272 265 260 254 243 238 249 249 273 272 213 215 238 243 248 243 239 229 224 222 222 222 220 218 217 215
312 313 307 308 309 310 287 279 288 290 307 322 319 307 286 272 256 225 221 230 244 261 235 208 233 203 271 257 231 227 226 227 224 223 221 216 209 202
312 314 311 320 320 321 306 259 265 282 300 307 308 306 300 290 275 246 222 218 228 241 230 196 221 205 211 256 263 227 214 216 209 219 220 216 207 195
305 307 312 324 330 331 328 319 319 322 316 316 312 305 298 293 283 271 252 238 232 236 233 202 210 206 206 230 252 253 231 215 200 206 206 206 211 211
308 317 326 336 342 343 346 350 354 355 337 323 306 293 286 286 291 293 288 275 265 251 241 221 215 214 205 216 226 227 235 238 203 200 199 197 197 192
346 338 346 2 9 358 355 2 3 354 338 311 305 303 308 312 311 309 302 305 305 295 273 239 222 207 213 223 219 234 223 216 212 206 200 202 201 199
350 2 11 7 7 1 358 358 357 0 356 341 335 335 335 334 321 317 314 318 309 295 297 302 277 233 216 203 216 235 234 233 218 194 184 206 218 210
40 25 12 8 2 355 350 347 349 350 347 346 345 340 336 334 330 328 326 321 309 292 287 297 329 351 352 301 218 223 234 230 222 196 179 189 226 222
48 24 8 357 351 347 345 344 342 335 337 343 343 336 333 332 330 329 327 322 315 311 307 308 318 260 264 285 285 224 209 226 206 201 194 188 209 223
29 11 355 347 347 349 348 346 343 345 349 346 341 335 332 333 334 332 329 324 317 316 322 327 316 269 233 246 266 286 234 205 202 208 204 192 211 221
8 3 356 353 353 350 348 346 347 345 342 338 336 333 331 332 331 329 327 327 325 318 315 306 287 286 265 200 312 308 302 243 207 203 191 177 179 184
6 6 2 1 357 352 349 349 350 347 345 342 335 333 332 333 331 330 329 326 325 317 303 298 307 325 22 234 266 279 298 312 299 268 212 183 177 189
6 4 4 2 358 354 351 348 350 346 343 339 335 332 332 331 328 326 327 326 326 330 329 326 331 339 300 252 256 272 292 303 324 6 340 325 257 225